Home   Weather   Kathmandu   Past weeks

Flag for Nepal Past Weather in Kathmandu, Nepal — Yesterday and Last 2 Weeks

Now
37 °F

Passing clouds.


Feels Like: 34 °F
Forecast: 38 / 74 °F
Wind: 5 mph from East

Location: Kathmandu Airport

Current Time: Jan 20, 2017 at 5:20:50 am

Latest Report: Jan 20, 2017 at 4:35 am


Visibility: 4 mi

Pressure: 30.21 "Hg (25.70 "Hg at 1305m altitude)

Humidity: 81%

Dew Point: 32 °F

Location of KathmanduLocation

Past Weather in Kathmandu — Graph

°F

Kathmandu Temperature Yesterday

Maximum temperature yesterday: 68 °F (at 12:35 pm)
Minimum temperature yesterday: 37 °F (at 4:35 am)
Average temperature yesterday: 52 °F

High & Low Weather Summary for the Past Weeks

 TemperatureHumidityPressure
High68 °F (Jan 16, 2:35 pm)100% (Jan 7, 7:05 am)30.30 "Hg (Jan 7, 7:05 am)
Low34 °F (Jan 14, 6:05 am)18% (Jan 19, 2:05 pm)29.95 "Hg (Jan 7, 3:05 pm)
Average49 °F65%30.08 "Hg
* Reported Jan 5 3:35 am — Jan 20 3:35 am, Kathmandu, Weather by CustomWeather, © 2017

Note: Actual official high and low records may vary slightly from our data, if they occured in-between our weather recording intervals... More about our weather records

Advertising

Kathmandu Weather History for the Previous 24 Hours

Scroll right to see more
 ConditionsComfort  
Time TempWeatherWind HumidityBarometerVisibility
3:35 am
Fri, Jan 20
39 °FPassing clouds.No wind75%30.21 "Hg4 mi
2:35 am39 °FPassing clouds.No wind81%30.24 "Hg4 mi
1:35 am41 °FPassing clouds.3 mph76%30.24 "Hg4 mi
12:05 am43 °FPassing clouds.3 mph71%30.21 "Hg4 mi
11:35 pm
Thu, Jan 19
46 °FPassing clouds.2 mph62%30.21 "Hg4 mi
11:05 pm45 °FPassing clouds.10 mph66%30.21 "Hg4 mi
10:35 pm46 °FPassing clouds.3 mph62%30.21 "Hg4 mi
10:05 pm46 °FPassing clouds.2 mph57%30.21 "Hg4 mi
9:35 pm46 °FPassing clouds.3 mph57%30.21 "Hg4 mi
9:05 pm48 °FPassing clouds.5 mph58%30.21 "Hg4 mi
8:35 pm48 °FPassing clouds.5 mph58%30.21 "Hg4 mi
8:05 pm50 °FPassing clouds.6 mph54%30.18 "Hg4 mi
7:35 pm54 °FPassing clouds.3 mph47%30.18 "Hg4 mi
7:05 pm57 °FPassing clouds.3 mph41%30.18 "Hg4 mi
6:35 pm59 °FPassing clouds.5 mph39%30.15 "Hg5 mi
6:05 pm59 °FPassing clouds.3 mph36%30.15 "Hg5 mi
5:35 pm63 °FPassing clouds.5 mph24%30.15 "HgN/A
5:05 pm64 °FPassing clouds.9 mph22%30.15 "HgN/A
4:35 pm64 °FPassing clouds.9 mph22%30.15 "HgN/A
4:05 pm66 °FPassing clouds.10 mph19%30.15 "HgN/A
3:35 pm66 °FPassing clouds.13 mph19%30.15 "HgN/A
3:05 pm68 °FPassing clouds.13 mph18%30.15 "HgN/A
2:35 pm68 °FPassing clouds.13 mph18%30.15 "HgN/A
2:05 pm68 °FPassing clouds.12 mph18%30.18 "HgN/A
1:35 pm68 °FPassing clouds.13 mph20%30.18 "HgN/A
1:05 pm68 °FPassing clouds.12 mph20%30.21 "HgN/A
12:35 pm68 °FPassing clouds.10 mphN/AN/A4 mi
12:05 pm66 °FHaze.3 mph37%30.24 "Hg3 mi
11:35 am63 °FHaze.3 mph37%30.27 "Hg2 mi
11:05 am59 °FHaze.No wind45%30.30 "Hg2 mi
10:35 am57 °FHaze.3 mph48%30.30 "Hg2 mi
10:05 am54 °FHaze.2 mph58%30.30 "Hg1 mi
9:35 am50 °FHaze.2 mph67%30.30 "Hg1 mi
9:05 am48 °FFog.No wind71%30.30 "Hg1 mi
8:35 am43 °FFog.2 mph81%30.30 "Hg1 mi
8:05 am41 °FFog.No wind81%30.27 "Hg2 mi
7:35 am37 °FFog.3 mph87%30.27 "Hg2 mi
7:05 am37 °FFog.3 mph87%30.24 "Hg2 mi
6:35 am37 °FFog.3 mph87%30.24 "Hg2 mi
6:05 am37 °FFog.2 mph87%30.24 "Hg3 mi
5:35 am37 °FFog.No wind93%30.24 "Hg3 mi
Weather by CustomWeather, © 2017

See weather overviewHow to use our weather pages